Location: Nickerson Gardens
(33.9320°N, 118.2484°W)
Time: 05:53:09
(UTC+00:00)

N. Korean satellite - Pass Details

Date: 23 January 2021
Orbit: 451 x 502 km, 97.2° (Epoch: 08 March)

Event Time Altitude Azimuth Distance (km) Brightness Sun altitude
Rises 13:30:28 0° 5° (N) 2,500 10.1 -17.6°
Reaches altitude 10° 13:32:33 10° 360° (N) 1,612 9.1 -17.1°
Maximum altitude 13:35:54 50° 284° (WNW) 589 6.5 -16.5°
Drops below altitude 10° 13:39:12 10° 208° (SSW) 1,583 9.0 -15.8°
Sets 13:41:15 0° 203° (SSW) 2,447 10.0 -15.4°
